Napa County, CA

12:38 AM PDT on August 19, 2017 (GMT -0700)
Napa County

Weather History for KAPC - November, 2011

Change the Weather History Date:

Wednesday, November 2, 2011

  Actual Average Record
Temperature  
Mean Temperature 57 °F 55 °F  
Max Temperature 77 °F 69 °F 77 °F (2011)
Min Temperature 37 °F 41 °F 30 °F (2002)
Degree Days  
Heating Degree Days 8    
Month to date heating degree days 13  
Since 1 July heating degree days 231  
Cooling Degree Days 0    
Month to date cooling degree days 0  
Year to date cooling degree days 175  
Growing Degree Days 10 (Base 50)    
Moisture  
Dew Point 20 °F    
Average Humidity 43    
Maximum Humidity 76    
Minimum Humidity 9    
Precipitation  
Precipitation 0.00 in - 0.67 in (1948)
Month to date precipitation 0.00  
Year to date precipitation 17.04  
Since 1 July precipitation 1.19  
Sea Level Pressure  
Sea Level Pressure 30.04 in    
Wind  
Wind Speed 6 mph (East)    
Max Wind Speed 22 mph    
Max Gust Speed 26 mph    
Visibility 10 miles    
Events      
T = Trace of Precipitation, MM = Missing Value Source: NWS Daily Summary

Daily Weather History Graph

Daily Weather History Graph

Search for Another Location

Airport or City:

Trip Planner

Search our weather history database for the weather conditions in past years. The results will help you decide how hot, cold, wet, or windy it might be!

Date:

Astronomy

Nov. 02, 2011 Rise Set
Actual Time 7:36 AM PDT 6:08 PM PDT
Civil Twilight 7:08 AM PDT 6:36 PM PDT
Nautical Twilight 6:37 AM PDT 7:07 PM PDT
Astronomical Twilight 6:06 AM PDT 7:38 PM PDT
Moon 1:58 PM PDT (11/2) No Moon Set
Length of Visible Light 11h 27m
Length of Day
10h 32m
Waxing Crescent, 51% of the Moon is Illuminated
Nov 2
Waxing Crescent
Nov 10
Full
Nov 18
Last Quarter
Nov 24
New
Dec 2
First Quarter

Hourly Weather History & Observations

Time (PDT) Temp. Windchill Dew Point Humidity Pressure Visibility Wind Dir Wind Speed Gust Speed Precip Events Conditions
12:54 AM 64.9 °F - 5.0 °F 9% 30.03 in 10.0 mi North 15.0 mph - N/A   Clear
1:54 AM 63.0 °F - 6.1 °F 11% 30.01 in 10.0 mi North 18.4 mph - N/A   Clear
2:54 AM 61.0 °F - 6.1 °F 11% 30.03 in 10.0 mi Variable 4.6 mph - N/A   Clear
3:54 AM 59.0 °F - 5.0 °F 12% 30.04 in 10.0 mi Calm Calm - N/A   Clear
4:54 AM 61.0 °F - 3.9 °F 10% 30.05 in 10.0 mi NE 4.6 mph - N/A   Clear
5:54 AM 50.0 °F - 15.1 °F 25% 30.06 in 10.0 mi ESE 6.9 mph - N/A   Clear
6:54 AM 46.9 °F - 15.1 °F 28% 30.06 in 10.0 mi ESE 3.5 mph - N/A   Clear
7:54 AM 43.0 °F 41.3 °F 17.1 °F 35% 30.07 in 10.0 mi ESE 3.5 mph - N/A   Clear
8:54 AM 55.0 °F - 21.9 °F 28% 30.10 in 10.0 mi Calm Calm - N/A   Clear
9:54 AM 66.0 °F - 18.0 °F 16% 30.11 in 10.0 mi Variable 3.5 mph - N/A   Clear
10:54 AM 66.9 °F - 16.0 °F 14% 30.10 in 10.0 mi ESE 11.5 mph - N/A   Clear
11:54 AM 72.0 °F - 16.0 °F 12% 30.09 in 10.0 mi East 9.2 mph - N/A   Clear
12:54 PM 77.0 °F - 17.1 °F 10% 30.07 in 10.0 mi Variable 5.8 mph - N/A   Clear
1:17 PM 75.2 °F - 17.6 °F 11% 30.08 in 10.0 mi East 12.7 mph - N/A   Clear
1:54 PM 75.9 °F - 18.0 °F 11% 30.05 in 10.0 mi East 12.7 mph - N/A   Clear
3:54 PM 75.0 °F - 24.1 °F 15% 30.01 in 10.0 mi East 11.5 mph - N/A   Clear
4:54 PM 73.0 °F - 28.0 °F 19% 30.00 in 10.0 mi East 8.1 mph - N/A   Clear
5:54 PM 64.9 °F - 30.0 °F 27% 29.99 in 10.0 mi East 6.9 mph - N/A   Clear
6:54 PM 61.0 °F - 30.9 °F 32% 29.98 in 10.0 mi East 3.5 mph - N/A   Clear
8:54 PM 51.1 °F - 37.9 °F 61% 29.98 in 10.0 mi Calm Calm - N/A   Clear
9:54 PM 44.1 °F 41.5 °F 34.0 °F 68% 29.98 in 10.0 mi ESE 4.6 mph - N/A   Clear
10:54 PM 46.0 °F 43.9 °F 37.0 °F 71% 29.98 in 10.0 mi NE 4.6 mph - N/A   Clear
11:54 PM 45.0 °F 42.6 °F 37.0 °F 74% 29.99 in 10.0 mi WNW 4.6 mph - N/A   Clear